TimeCDT,TemperatureF,Dew PointF,Humidity,Sea Level PressureIn,VisibilityMPH,Wind Direction,Wind SpeedMPH,Gust SpeedMPH,PrecipitationIn,Events,Conditions,WindDirDegrees,DateUTC
12:55 AM,53.6,42.8,67,29.99,10.0,Calm,Calm,-,N/A,,Partly Cloudy,0,2012-11-03 05:55:00
1:55 AM,51.8,44.6,76,29.99,10.0,Calm,Calm,-,N/A,,Clear,0,2012-11-03 06:55:00
2:15 AM,51.8,44.6,76,29.99,10.0,Calm,Calm,-,N/A,,Clear,0,2012-11-03 07:15:00
2:35 AM,51.8,44.6,76,29.99,10.0,Calm,Calm,-,N/A,,Clear,0,2012-11-03 07:35:00
2:55 AM,51.8,44.6,76,29.99,10.0,East,3.5,-,N/A,,Clear,90,2012-11-03 07:55:00
3:15 AM,53.6,44.6,72,29.99,10.0,Calm,Calm,-,N/A,,Clear,0,2012-11-03 08:15:00
3:35 AM,53.6,44.6,72,29.99,10.0,Calm,Calm,-,N/A,,Clear,0,2012-11-03 08:35:00
3:55 AM,53.6,44.6,72,29.99,10.0,Calm,Calm,-,N/A,,Clear,0,2012-11-03 08:55:00
4:55 AM,50.0,44.6,82,30.00,10.0,Calm,Calm,-,N/A,,Clear,0,2012-11-03 09:55:00
5:55 AM,48.2,44.6,87,30.00,10.0,SE,4.6,-,N/A,,Clear,130,2012-11-03 10:55:00
6:55 AM,48.2,46.4,93,30.00,10.0,Calm,Calm,-,N/A,,Clear,0,2012-11-03 11:55:00
7:55 AM,50.0,46.4,87,30.02,10.0,Calm,Calm,-,N/A,,Clear,0,2012-11-03 12:55:00
8:55 AM,59.0,53.6,82,30.03,10.0,SSE,3.5,-,N/A,,Clear,160,2012-11-03 13:55:00
9:55 AM,69.8,60.8,73,30.02,10.0,Variable,4.6,-,N/A,,Clear,0,2012-11-03 14:55:00
10:55 AM,77.0,62.6,61,30.01,10.0,SW,15.0,-,N/A,,Partly Cloudy,230,2012-11-03 15:55:00
11:55 AM,80.6,62.6,54,30.00,10.0,SW,13.8,-,N/A,,Partly Cloudy,230,2012-11-03 16:55:00
12:55 PM,82.4,62.6,51,29.97,10.0,SW,21.9,-,N/A,,Partly Cloudy,230,2012-11-03 17:55:00
1:55 PM,84.2,62.6,48,29.95,10.0,WSW,20.7,-,N/A,,Scattered Clouds,240,2012-11-03 18:55:00
2:55 PM,82.4,62.6,51,29.93,10.0,WSW,19.6,-,N/A,,Scattered Clouds,240,2012-11-03 19:55:00
3:55 PM,80.6,62.6,54,29.93,10.0,WSW,13.8,-,N/A,,Scattered Clouds,250,2012-11-03 20:55:00
4:55 PM,78.8,62.6,57,29.92,10.0,West,9.2,-,N/A,,Mostly Cloudy,280,2012-11-03 21:55:00
5:55 PM,77.0,60.8,57,29.93,10.0,NW,12.7,-,N/A,,Mostly Cloudy,320,2012-11-03 22:55:00
6:55 PM,71.6,51.8,50,29.98,10.0,NW,9.2,-,N/A,,Mostly Cloudy,320,2012-11-03 23:55:00
7:55 PM,69.8,50.0,49,30.02,10.0,North,10.4,-,N/A,,Mostly Cloudy,360,2012-11-04 00:55:00
8:55 PM,60.8,44.6,55,30.07,10.0,North,15.0,-,N/A,,Clear,360,2012-11-04 01:55:00
9:55 PM,57.2,44.6,63,30.09,10.0,North,6.9,-,N/A,,Clear,360,2012-11-04 02:55:00
10:55 PM,55.4,42.8,63,30.12,10.0,NNW,6.9,-,N/A,,Clear,340,2012-11-04 03:55:00